TimeBST,TemperatureF,Dew PointF,Humidity,Sea Level PressureIn,VisibilityMPH,Wind Direction,Wind SpeedMPH,Gust SpeedMPH,PrecipitationIn,Events,Conditions,WindDirDegrees,DateUTC
12:20 AM,44.6,39.2,81,30.15,-9999.0,NW,4.6,-,N/A,,Clear,320,2013-10-09 23:20:00
12:50 AM,43,38,75,,,Calm,Calm,,,,,,2013-10-09 23:50:00
12:50 AM,44.6,39.2,81,30.15,-9999.0,Variable,3.5,-,N/A,,Clear,0,2013-10-09 23:50:00
1:20 AM,42.8,39.2,87,30.15,-9999.0,WNW,5.8,-,N/A,,Clear,300,2013-10-10 00:20:00
1:50 AM,42.8,39.2,87,30.15,-9999.0,West,5.8,-,N/A,,Clear,270,2013-10-10 00:50:00
3:50 AM,45,41,82,,,Calm,Calm,,,,,,2013-10-10 02:50:00
5:20 AM,44.6,41.0,87,30.12,-9999.0,NW,10.4,-,N/A,,Clear,310,2013-10-10 04:20:00
5:50 AM,46.4,41.0,81,30.15,-9999.0,NNW,13.8,-,N/A,,Clear,330,2013-10-10 04:50:00
6:20 AM,44.6,41.0,87,30.15,-9999.0,NNW,10.4,-,N/A,,Clear,340,2013-10-10 05:20:00
6:50 AM,47,39,66,,,Calm,Calm,,,,,,2013-10-10 05:50:00
6:50 AM,44.6,41.0,87,30.15,-9999.0,North,12.7,-,N/A,,Clear,350,2013-10-10 05:50:00
7:20 AM,46.4,39.2,76,30.15,6.2,North,12.7,-,N/A,,Partly Cloudy,350,2013-10-10 06:20:00
7:50 AM,46.4,39.2,76,30.18,6.2,NNW,9.2,-,N/A,,Partly Cloudy,340,2013-10-10 06:50:00
8:20 AM,46.4,39.2,76,30.18,6.2,NNW,8.1,-,N/A,,Partly Cloudy,330,2013-10-10 07:20:00
8:50 AM,46.4,39.2,76,30.18,6.2,NNW,9.2,-,N/A,,Partly Cloudy,340,2013-10-10 07:50:00
9:20 AM,48.2,39.2,71,30.21,6.2,North,5.8,-,N/A,,Partly Cloudy,10,2013-10-10 08:20:00
9:50 AM,50,40,60,,,Calm,Calm,,,,,,2013-10-10 08:50:00
9:50 AM,50.0,41.0,71,30.21,6.2,North,10.4,-,N/A,,Partly Cloudy,360,2013-10-10 08:50:00
10:20 AM,48.2,39.2,71,30.21,6.2,North,10.4,-,N/A,,Partly Cloudy,360,2013-10-10 09:20:00
10:50 AM,50.0,39.2,66,30.21,6.2,North,15.0,-,N/A,,Partly Cloudy,350,2013-10-10 09:50:00
11:20 AM,51.8,39.2,62,30.21,6.2,NNE,15.0,-,N/A,,Partly Cloudy,20,2013-10-10 10:20:00
11:50 AM,50.0,37.4,62,30.21,6.2,North,13.8,-,N/A,,Partly Cloudy,350,2013-10-10 10:50:00
12:20 PM,51.8,39.2,62,30.21,6.2,North,15.0,-,N/A,,Partly Cloudy,10,2013-10-10 11:20:00
12:50 PM,53,38,46,,,Calm,Calm,,,,,,2013-10-10 11:50:00
12:50 PM,51.8,39.2,62,30.21,6.2,North,15.0,-,N/A,,Partly Cloudy,360,2013-10-10 11:50:00
1:20 PM,53.6,39.2,58,30.21,6.2,North,13.8,-,N/A,,Partly Cloudy,10,2013-10-10 12:20:00
1:50 PM,53.6,37.4,54,30.21,6.2,North,11.5,-,N/A,,Partly Cloudy,350,2013-10-10 12:50:00
2:20 PM,53.6,37.4,54,30.21,6.2,North,11.5,-,N/A,,Partly Cloudy,10,2013-10-10 13:20:00
2:50 PM,53.6,37.4,54,30.21,6.2,NNE,12.7,-,N/A,,Partly Cloudy,20,2013-10-10 13:50:00
3:20 PM,53.6,37.4,54,30.21,6.2,North,15.0,-,N/A,,Partly Cloudy,360,2013-10-10 14:20:00
3:50 PM,55,38,40,,,Calm,Calm,,,,,,2013-10-10 14:50:00
3:50 PM,53.6,37.4,54,30.21,6.2,North,15.0,-,N/A,,Partly Cloudy,350,2013-10-10 14:50:00
4:20 PM,53.6,37.4,54,30.21,6.2,North,13.8,-,N/A,,Partly Cloudy,350,2013-10-10 15:20:00
4:50 PM,53.6,37.4,54,30.21,6.2,North,15.0,-,N/A,,Partly Cloudy,350,2013-10-10 15:50:00
5:20 PM,53.6,37.4,54,30.21,6.2,North,13.8,-,N/A,,Partly Cloudy,360,2013-10-10 16:20:00
5:50 PM,53.6,37.4,54,30.21,6.2,North,11.5,-,N/A,,Partly Cloudy,350,2013-10-10 16:50:00
6:20 PM,51.8,37.4,58,30.21,6.2,North,12.7,-,N/A,,Partly Cloudy,360,2013-10-10 17:20:00
6:50 PM,50.0,37.4,62,30.21,6.2,North,10.4,-,N/A,,Partly Cloudy,360,2013-10-10 17:50:00
7:20 PM,48.2,37.4,66,30.21,6.2,NNW,4.6,-,N/A,,Partly Cloudy,340,2013-10-10 18:20:00
7:50 PM,48.2,37.4,66,30.24,6.2,North,6.9,-,N/A,,Partly Cloudy,360,2013-10-10 18:50:00
8:20 PM,48.2,37.4,66,30.24,6.2,NNW,6.9,-,N/A,,Partly Cloudy,340,2013-10-10 19:20:00
8:50 PM,46.4,35.6,66,30.24,6.2,North,9.2,-,N/A,,Partly Cloudy,350,2013-10-10 19:50:00
9:20 PM,46.4,35.6,66,30.24,-9999.0,NNW,9.2,-,N/A,,Clear,340,2013-10-10 20:20:00
9:50 PM,45,35,58,,,Calm,Calm,,,,,,2013-10-10 20:50:00
9:50 PM,44.6,35.6,71,30.24,-9999.0,NW,8.1,-,N/A,,Clear,320,2013-10-10 20:50:00
10:20 PM,44.6,35.6,71,30.24,-9999.0,NNW,6.9,-,N/A,,Clear,340,2013-10-10 21:20:00
10:50 PM,42.8,35.6,76,30.24,-9999.0,NNW,4.6,-,N/A,,Clear,340,2013-10-10 21:50:00
11:20 PM,41.0,35.6,81,30.21,-9999.0,NW,3.5,-,N/A,,Clear,320,2013-10-10 22:20:00
11:50 PM,41.0,37.4,87,30.21,-9999.0,NNW,6.9,-,N/A,,Clear,330,2013-10-10 22:50:00